Location: Villingen
(48.0639°N, 8.4609°E)
Time: 15:39:34
(UTC+02:00)

ISS - Pass Details

Date: 29 March 2017
Orbit: 400 x 409 km, 51.6° (Epoch: 26 April)

Event Time Altitude Azimuth Distance (km) Brightness Sun altitude
Rises 21:36:36 0° 240° (WSW) 2,309 0.5 -17.5°
Reaches altitude 10° 21:38:41 10° 239° (WSW) 1,455 -0.6 -17.8°
Maximum altitude 21:41:55 74° 155° (SSE) 426 -4.0 -18.3°
Enters shadow 21:42:10 68° 112° (ESE) 438 -4.0 -18.3°
